Starlink 32003

operational
NORAD ID: 60097 Int'l Des: 2024-117 Owner: SPXS Country: US Constellation: starlink
LEOCIRCULAR

About Starlink 32003

Description loading...

Live Position

Loading 3D Globe...

Upcoming Passes

Altitude History

Altitude vs Time

uPlot chart will show altitude changes over time

Two-Line Element Set

1 60097U 24117G 25305.38129227 .00001369 00000-0 58343-4 0 9992
2 60097 53.1600 272.9775 0001280 86.2277 273.8870 15.30194371 77240
Epoch: Nov 1, 2025 • Age: 17 hours

Current Status

Altitude 478.2 km
Velocity 7.63 km/s
Sub-Earth Point 40.41°N, 132.09°W
Launch Date Jun 23, 2024
Age 1.3 years
Type internet

Technical Details

Classification Payload
Mass 730.00 kg
Dry Mass 700.00 kg
Total Mass 730.00 kg
Length 0.30 m
Diameter 4.10 m
Span 29.00 m
Shape Box + pan
Manufacturer SPXS
Bus Type Starlink V2M
Phase Status In Orbit
Owner/State SPXS/US

Large Constellations

Loading constellations...